When you browse on this site, cookies collect data to enhance your experience and personalize the content and advertising you see.
Visit our Privacy Policy to learn more. By continuing to use the site, you agree to this use of cookies and data.
  • In Austria
  • List of Countries
  • For 7 days
  • Water Temperature
  • Satellite Maps
  • Weather Map
  • News
  • Weather Widgets
  • user-avatar
    Login

    Hourly Weather Rohachiv

    Today, 21 February, Thursday

    Time Temperature Precipitation Wind Pressure Humidity
    00:00 +1°C° 0 mm 6 mps 745 mmHg 77%
    01:00 -1°C° 0 mm 6 mps 746 mmHg 79%
    02:00 0°C° 0 mm 4 mps 746 mmHg 84%
    03:00 -1°C° 0 mm 4 mps 746 mmHg 84%
    04:00 -1°C° 0 mm 5 mps 746 mmHg 85%
    05:00 -2°C° 0 mm 5 mps 747 mmHg 85%
    06:00 -2°C° 0 mm 5 mps 747 mmHg 83%
    07:00 -2°C° 0 mm 5 mps 747 mmHg 82%
    08:00 -2°C° 0 mm 5 mps 747 mmHg 80%
    09:00 -2°C° 0 mm 6 mps 747 mmHg 74%
    10:00 +1°C° 0 mm 6 mps 747 mmHg 69%
    11:00 +2°C° 0 mm 7 mps 748 mmHg 63%
    12:00 +2°C° 0 mm 6 mps 747 mmHg 64%
    13:00 +2°C° 0 mm 6 mps 747 mmHg 65%
    14:00 +2°C° 0 mm 6 mps 747 mmHg 66%
    15:00 +2°C° 0.1 mm 5 mps 747 mmHg 71%
    16:00 +3°C° 0.1 mm 4 mps 747 mmHg 75%
    17:00 +3°C° 0.1 mm 3 mps 747 mmHg 79%
    18:00 +2°C° 0.3 mm 3 mps 747 mmHg 82%
    19:00 +3°C° 0.3 mm 2 mps 747 mmHg 85%
    20:00 +2°C° 0.3 mm 2 mps 747 mmHg 88%
    21:00 0°C° 0.5 mm 3 mps 747 mmHg 87%
    22:00 -1°C° 0.5 mm 3 mps 746 mmHg 86%
    23:00 -3°C° 0.5 mm 4 mps 746 mmHg 85%

    Tomorrow, 22 February, Friday

    Time Temperature Precipitation Wind Pressure Humidity
    00:00 -3°C° 0.6 mm 4 mps 746 mmHg 87%
    01:00 -4°C° 0.6 mm 4 mps 746 mmHg 88%
    02:00 -4°C° 0.6 mm 4 mps 747 mmHg 90%
    03:00 -5°C° 0.4 mm 4 mps 747 mmHg 88%
    04:00 -5°C° 0.4 mm 4 mps 747 mmHg 86%
    05:00 -7°C° 0.4 mm 5 mps 747 mmHg 83%
    06:00 -7°C° 0.2 mm 5 mps 748 mmHg 79%
    07:00 -7°C° 0.2 mm 5 mps 749 mmHg 76%
    08:00 -8°C° 0.2 mm 6 mps 750 mmHg 72%
    09:00 -8°C° 0 mm 6 mps 751 mmHg 68%
    10:00 -9°C° 0 mm 6 mps 752 mmHg 65%
    11:00 -9°C° 0 mm 7 mps 753 mmHg 62%
    12:00 -8°C° 0 mm 7 mps 753 mmHg 59%
    13:00 -8°C° 0 mm 6 mps 754 mmHg 57%
    14:00 -8°C° 0 mm 6 mps 754 mmHg 54%
    15:00 -8°C° 0 mm 6 mps 754 mmHg 55%
    16:00 -8°C° 0 mm 6 mps 755 mmHg 56%
    17:00 -8°C° 0 mm 5 mps 755 mmHg 57%
    18:00 -8°C° 0 mm 5 mps 756 mmHg 60%
    19:00 -10°C° 0 mm 5 mps 756 mmHg 64%
    20:00 -10°C° 0 mm 5 mps 757 mmHg 67%
    21:00 -10°C° 0 mm 5 mps 757 mmHg 67%
    22:00 -10°C° 0 mm 5 mps 757 mmHg 66%
    23:00 -10°C° 0 mm 5 mps 758 mmHg 66%

    Day after tomorrow, 23 February, Saturday

    Time Temperature Precipitation Wind Pressure Humidity
    00:00 -9°C° 0 mm 4 mps 758 mmHg 67%
    01:00 -9°C° 0 mm 4 mps 758 mmHg 68%
    02:00 -10°C° 0 mm 4 mps 759 mmHg 68%
    03:00 -10°C° 0 mm 4 mps 759 mmHg 70%
    04:00 -10°C° 0 mm 4 mps 759 mmHg 71%
    05:00 -10°C° 0 mm 4 mps 759 mmHg 72%
    06:00 -10°C° 0 mm 4 mps 760 mmHg 73%
    07:00 -10°C° 0 mm 4 mps 760 mmHg 74%
    08:00 -10°C° 0 mm 4 mps 760 mmHg 75%
    09:00 -11°C° 0 mm 5 mps 761 mmHg 72%
    10:00 -10°C° 0 mm 5 mps 761 mmHg 69%
    11:00 -10°C° 0 mm 5 mps 761 mmHg 65%
    12:00 -8°C° 0 mm 5 mps 761 mmHg 63%
    13:00 -8°C° 0 mm 5 mps 761 mmHg 61%
    14:00 -7°C° 0 mm 5 mps 761 mmHg 59%
    15:00 -7°C° 0 mm 4 mps 761 mmHg 60%
    16:00 -8°C° 0 mm 4 mps 761 mmHg 61%
    17:00 -7°C° 0 mm 3 mps 760 mmHg 62%
    18:00 -7°C° 0 mm 3 mps 761 mmHg 64%
    19:00 -7°C° 0 mm 3 mps 761 mmHg 66%
    20:00 -8°C° 0 mm 3 mps 761 mmHg 68%
    21:00 -7°C° 0 mm 2 mps 761 mmHg 68%
    22:00 -7°C° 0 mm 2 mps 760 mmHg 68%
    23:00 -7°C° 0 mm 2 mps 760 mmHg 68%

    24 February, Sunday

    Time Temperature Precipitation Wind Pressure Humidity
    00:00 -7°C° 0 mm 2 mps 760 mmHg 69%
    01:00 -7°C° 0 mm 2 mps 760 mmHg 69%
    02:00 -7°C° 0 mm 2 mps 760 mmHg 70%
    03:00 -7°C° 0 mm 2 mps 760 mmHg 69%
    04:00 -7°C° 0 mm 2 mps 759 mmHg 69%
    05:00 -7°C° 0 mm 2 mps 759 mmHg 68%
    06:00 -7°C° 0 mm 2 mps 759 mmHg 67%
    07:00 -6°C° 0 mm 2 mps 759 mmHg 66%
    08:00 -6°C° 0 mm 2 mps 759 mmHg 66%
    09:00 -5°C° 0 mm 2 mps 759 mmHg 61%
    10:00 -4°C° 0 mm 2 mps 759 mmHg 56%
    11:00 -4°C° 0 mm 3 mps 759 mmHg 52%
    12:00 -4°C° 0.1 mm 3 mps 759 mmHg 58%
    13:00 -4°C° 0.1 mm 3 mps 758 mmHg 64%
    14:00 -4°C° 0.1 mm 3 mps 758 mmHg 71%
    15:00 -3°C° 0 mm 2 mps 758 mmHg 73%
    16:00 -3°C° 0 mm 2 mps 758 mmHg 76%
    17:00 -3°C° 0 mm 2 mps 758 mmHg 78%
    18:00 -1°C° 0 mm 1 mps 758 mmHg 79%
    19:00 -1°C° 0 mm 1 mps 758 mmHg 80%
    20:00 -2°C° 0 mm 1 mps 758 mmHg 80%
    21:00 -2°C° 0 mm 1 mps 758 mmHg 79%
    22:00 -2°C° 0 mm 1 mps 758 mmHg 78%
    23:00 -2°C° 0 mm 1 mps 758 mmHg 77%

    25 February, Monday

    Time Temperature Precipitation Wind Pressure Humidity
    00:00 -2°C° 0 mm 1 mps 758 mmHg 77%
    01:00 -2°C° 0 mm 1 mps 758 mmHg 77%
    02:00 -2°C° 0 mm 1 mps 758 mmHg 77%
    03:00 -2°C° 0 mm 1 mps 758 mmHg 77%
    04:00 -4°C° 0 mm 2 mps 758 mmHg 77%
    05:00 -4°C° 0 mm 2 mps 758 mmHg 77%
    06:00 -4°C° 0 mm 2 mps 758 mmHg 77%
    07:00 -4°C° 0 mm 2 mps 758 mmHg 77%
    08:00 -5°C° 0 mm 3 mps 758 mmHg 77%
    09:00 -4°C° 0 mm 3 mps 758 mmHg 73%
    10:00 -3°C° 0 mm 4 mps 758 mmHg 69%
    11:00 -1°C° 0 mm 4 mps 758 mmHg 64%
    12:00 0°C° 0 mm 4 mps 758 mmHg 65%
    13:00 0°C° 0 mm 5 mps 758 mmHg 66%
    14:00 +1°C° 0 mm 5 mps 757 mmHg 67%
    15:00 +1°C° 0 mm 4 mps 757 mmHg 72%
    16:00 0°C° 0 mm 4 mps 757 mmHg 77%
    17:00 +1°C° 0 mm 3 mps 756 mmHg 83%
    18:00 0°C° 0 mm 4 mps 756 mmHg 85%
    19:00 -1°C° 0 mm 4 mps 756 mmHg 87%
    20:00 -1°C° 0 mm 4 mps 756 mmHg 89%
    21:00 -2°C° 0 mm 4 mps 756 mmHg 91%
    22:00 -1°C° 0 mm 3 mps 756 mmHg 93%
    23:00 -2°C° 0 mm 3 mps 756 mmHg 95%

    26 February, Tuesday

    Time Temperature Precipitation Wind Pressure Humidity
    00:00 -2°C° 0 mm 3 mps 756 mmHg 95%
    01:00 -3°C° 0 mm 4 mps 755 mmHg 94%
    02:00 -3°C° 0 mm 4 mps 755 mmHg 94%
    03:00 -4°C° 0 mm 3 mps 755 mmHg 94%
    04:00 -4°C° 0 mm 3 mps 754 mmHg 93%
    05:00 -4°C° 0 mm 3 mps 754 mmHg 93%
    06:00 -2°C° 0 mm 3 mps 754 mmHg 92%
    07:00 -2°C° 0 mm 3 mps 753 mmHg 90%
    08:00 -2°C° 0 mm 3 mps 753 mmHg 88%
    09:00 -2°C° 0 mm 4 mps 753 mmHg 84%
    10:00 -1°C° 0 mm 4 mps 752 mmHg 79%
    11:00 0°C° 0 mm 5 mps 752 mmHg 74%
    12:00 +1°C° 0 mm 5 mps 751 mmHg 69%
    13:00 +2°C° 0 mm 6 mps 750 mmHg 63%
    14:00 +3°C° 0 mm 7 mps 749 mmHg 58%
    15:00 +3°C° 0 mm 6 mps 748 mmHg 65%
    16:00 +2°C° 0 mm 6 mps 747 mmHg 72%
    17:00 +2°C° 0 mm 6 mps 746 mmHg 79%
    18:00 +1°C° 0 mm 6 mps 746 mmHg 82%
    19:00 +1°C° 0 mm 6 mps 745 mmHg 84%
    20:00 -1°C° 0 mm 7 mps 745 mmHg 87%
    21:00 -1°C° 0 mm 7 mps 745 mmHg 88%
    22:00 -1°C° 0 mm 7 mps 745 mmHg 89%
    23:00 -2°C° 0 mm 7 mps 745 mmHg 89%
    Show more